Time,TemperatureF,DewpointF,PressureIn,WindDirection,WindDirectionDegrees,WindSpeedMPH,WindSpeedGustMPH,Humidity,HourlyPrecipIn,Conditions,Clouds,dailyrainin,SoftwareType,DateUTC
2013-09-08 00:02:00,62.8,48.2,28.63,SE,135,3.0,4.0,59,-99.99,,,-99.99,meteohub,2013-09-07 22:02:00,
2013-09-08 00:17:00,62.1,47.5,28.63,South,180,4.0,4.0,59,-99.99,,,-99.99,meteohub,2013-09-07 22:17:00,
2013-09-08 00:32:00,61.7,47.3,28.63,SSE,158,4.0,4.0,59,-99.99,,,-99.99,meteohub,2013-09-07 22:32:00,
2013-09-08 00:47:00,61.3,47.3,28.62,South,180,2.0,4.0,60,-99.99,,,-99.99,meteohub,2013-09-07 22:47:00,
2013-09-08 01:02:00,60.8,46.8,28.61,South,180,2.0,2.0,60,-99.99,,,-99.99,meteohub,2013-09-07 23:02:00,
2013-09-08 01:17:00,60.3,46.4,28.61,South,180,2.0,3.0,60,-99.99,,,-99.99,meteohub,2013-09-07 23:17:00,
2013-09-08 01:32:00,60.1,46.2,28.62,South,180,1.0,2.0,60,-99.99,,,-99.99,meteohub,2013-09-07 23:32:00,
2013-09-08 01:47:00,59.5,45.7,28.61,SE,135,0.0,1.0,60,-99.99,,,-99.99,meteohub,2013-09-07 23:47:00,
2013-09-08 02:02:00,59.4,45.5,28.61,SSE,158,0.0,2.0,60,-99.99,,,-99.99,meteohub,2013-09-08 00:02:00,
2013-09-08 02:17:00,59.0,45.1,28.61,ESE,113,1.0,1.0,60,-99.99,,,-99.99,meteohub,2013-09-08 00:17:00,
2013-09-08 02:32:00,58.8,45.0,28.60,East,90,3.0,3.0,60,-99.99,,,-99.99,meteohub,2013-09-08 00:32:00,
2013-09-08 02:47:00,59.2,45.3,28.60,SE,135,5.0,5.0,60,-99.99,,,-99.99,meteohub,2013-09-08 00:47:00,
2013-09-08 03:02:00,59.5,45.7,28.58,ESE,113,2.0,7.0,60,-99.99,,,-99.99,meteohub,2013-09-08 01:02:00,
2013-09-08 03:17:00,59.5,45.7,28.58,SSE,158,2.0,3.0,60,-99.99,,,-99.99,meteohub,2013-09-08 01:17:00,
2013-09-08 03:32:00,58.8,45.0,28.59,South,180,2.0,2.0,60,-99.99,,,-99.99,meteohub,2013-09-08 01:32:00,
2013-09-08 03:47:00,58.3,44.4,28.58,SSE,158,0.0,2.0,60,-99.99,,,-99.99,meteohub,2013-09-08 01:47:00,
2013-09-08 04:02:00,58.1,44.8,28.58,SSE,158,0.0,0.0,61,-99.99,,,-99.99,meteohub,2013-09-08 02:02:00,
2013-09-08 04:17:00,57.7,44.4,28.58,ESE,113,4.0,4.0,61,-99.99,,,-99.99,meteohub,2013-09-08 02:17:00,
2013-09-08 04:32:00,58.5,45.1,28.58,ESE,113,2.0,4.0,61,-99.99,,,-99.99,meteohub,2013-09-08 02:32:00,
2013-09-08 04:47:00,58.6,44.8,28.57,ESE,113,3.0,4.0,60,-99.99,,,-99.99,meteohub,2013-09-08 02:47:00,
2013-09-08 05:02:00,58.6,45.3,28.57,SE,135,3.0,3.0,61,-99.99,,,-99.99,meteohub,2013-09-08 03:02:00,
2013-09-08 05:17:00,58.6,44.8,28.57,SE,135,7.0,7.0,60,-99.99,,,-99.99,meteohub,2013-09-08 03:17:00,
2013-09-08 05:32:00,59.2,45.3,28.56,ESE,113,5.0,9.0,60,-99.99,,,-99.99,meteohub,2013-09-08 03:32:00,
2013-09-08 05:47:00,59.0,45.1,28.56,ENE,68,3.0,7.0,60,-99.99,,,-99.99,meteohub,2013-09-08 03:47:00,
2013-09-08 06:02:00,58.8,45.0,28.56,ESE,113,4.0,4.0,60,-99.99,,,-99.99,meteohub,2013-09-08 04:02:00,
2013-09-08 06:17:00,58.6,44.8,28.56,ENE,68,2.0,4.0,60,-99.99,,,-99.99,meteohub,2013-09-08 04:17:00,
2013-09-08 06:32:00,58.5,44.6,28.56,East,90,5.0,5.0,60,-99.99,,,-99.99,meteohub,2013-09-08 04:32:00,
2013-09-08 06:47:00,58.1,44.2,28.56,NNE,23,2.0,7.0,60,-99.99,,,-99.99,meteohub,2013-09-08 04:47:00,
2013-09-08 07:02:00,58.1,44.2,28.56,NNW,338,2.0,5.0,60,-99.99,,,-99.99,meteohub,2013-09-08 05:02:00,
2013-09-08 07:17:00,58.3,44.4,28.56,NNW,338,0.0,3.0,60,-99.99,,,-99.99,meteohub,2013-09-08 05:17:00,
2013-09-08 07:32:00,58.8,45.0,28.56,NNE,23,4.0,4.0,60,-99.99,,,-99.99,meteohub,2013-09-08 05:32:00,
2013-09-08 07:47:00,59.2,45.3,28.56,NNE,23,1.0,4.0,60,-99.99,,,-99.99,meteohub,2013-09-08 05:47:00,
2013-09-08 08:02:00,60.1,46.2,28.56,NNE,23,3.0,4.0,60,-99.99,,,-99.99,meteohub,2013-09-08 06:02:00,
2013-09-08 08:17:00,61.7,47.7,28.56,NNE,23,4.0,4.0,60,-99.99,,,-99.99,meteohub,2013-09-08 06:17:00,
2013-09-08 08:32:00,62.2,47.7,28.56,ENE,68,3.0,5.0,59,-99.99,,,-99.99,meteohub,2013-09-08 06:32:00,
2013-09-08 08:47:00,62.2,47.3,28.56,ESE,113,7.0,8.0,58,-99.99,,,-99.99,meteohub,2013-09-08 06:47:00,
2013-09-08 09:02:00,65.5,49.8,28.56,ENE,68,4.0,7.0,57,-99.99,,,-99.99,meteohub,2013-09-08 07:02:00,
2013-09-08 09:17:00,67.1,49.8,28.56,ESE,113,7.0,7.0,54,-99.99,,,-99.99,meteohub,2013-09-08 07:17:00,
2013-09-08 09:32:00,67.5,50.2,28.57,ENE,68,8.0,10.0,54,-99.99,,,-99.99,meteohub,2013-09-08 07:32:00,
2013-09-08 09:47:00,67.1,49.8,28.57,ESE,113,8.0,9.0,54,-99.99,,,-99.99,meteohub,2013-09-08 07:47:00,
2013-09-08 10:02:00,68.7,50.9,28.59,ESE,113,6.0,8.0,53,-99.99,,,-99.99,meteohub,2013-09-08 08:02:00,
2013-09-08 10:17:00,68.9,51.1,28.59,ESE,113,9.0,11.0,53,-99.99,,,-99.99,meteohub,2013-09-08 08:17:00,
2013-09-08 10:32:00,70.3,51.8,28.59,East,90,8.0,9.0,52,-99.99,,,-99.99,meteohub,2013-09-08 08:32:00,
2013-09-08 10:47:00,70.7,52.2,28.60,ENE,68,7.0,8.0,52,-99.99,,,-99.99,meteohub,2013-09-08 08:47:00,
2013-09-08 11:02:00,70.9,52.3,28.61,ESE,113,6.0,7.0,52,-99.99,,,-99.99,meteohub,2013-09-08 09:02:00,
2013-09-08 11:17:00,71.6,53.1,28.61,South,180,7.0,7.0,52,-99.99,,,-99.99,meteohub,2013-09-08 09:17:00,
2013-09-08 11:32:00,73.0,53.8,28.63,ESE,113,5.0,7.0,51,-99.99,,,-99.99,meteohub,2013-09-08 09:32:00,
2013-09-08 11:47:00,73.6,54.3,28.63,SE,135,6.0,7.0,51,-99.99,,,-99.99,meteohub,2013-09-08 09:47:00,
2013-09-08 12:02:00,74.3,54.5,28.64,East,90,6.0,6.0,50,-99.99,,,-99.99,meteohub,2013-09-08 10:02:00,
2013-09-08 12:17:00,75.4,54.9,28.64,SE,135,5.0,7.0,49,-99.99,,,-99.99,meteohub,2013-09-08 10:17:00,
2013-09-08 12:32:00,75.9,55.4,28.65,East,90,4.0,5.0,49,-99.99,,,-99.99,meteohub,2013-09-08 10:32:00,
2013-09-08 12:47:00,76.8,56.3,28.65,SE,135,2.0,5.0,49,-99.99,,,-99.99,meteohub,2013-09-08 10:47:00,
2013-09-08 13:02:00,77.2,55.4,28.66,SSE,158,4.0,6.0,47,-99.99,,,-99.99,meteohub,2013-09-08 11:02:00,
2013-09-08 13:17:00,77.5,56.3,28.66,ESE,113,5.0,5.0,48,-99.99,,,-99.99,meteohub,2013-09-08 11:17:00,
2013-09-08 13:32:00,77.2,55.9,28.66,SSE,158,3.0,6.0,48,-99.99,,,-99.99,meteohub,2013-09-08 11:32:00,
2013-09-08 13:47:00,76.8,55.6,28.67,ESE,113,3.0,8.0,48,-99.99,,,-99.99,meteohub,2013-09-08 11:47:00,
2013-09-08 14:02:00,78.1,56.8,28.68,SSE,158,4.0,4.0,48,-99.99,,,-99.99,meteohub,2013-09-08 12:02:00,
2013-09-08 14:17:00,79.0,58.1,28.68,South,180,3.0,7.0,49,-99.99,,,-99.99,meteohub,2013-09-08 12:17:00,
2013-09-08 14:32:00,79.3,56.8,28.68,SE,135,3.0,5.0,46,-99.99,,,-99.99,meteohub,2013-09-08 12:32:00,
2013-09-08 14:47:00,79.5,56.8,28.69,NE,45,4.0,5.0,46,-99.99,,,-99.99,meteohub,2013-09-08 12:47:00,
2013-09-08 15:02:00,79.7,57.7,28.69,South,180,4.0,4.0,47,-99.99,,,-99.99,meteohub,2013-09-08 13:02:00,
2013-09-08 15:17:00,79.3,57.4,28.69,South,180,8.0,8.0,47,-99.99,,,-99.99,meteohub,2013-09-08 13:17:00,
2013-09-08 15:32:00,78.6,57.2,28.69,SSE,158,4.0,8.0,48,-99.99,,,-99.99,meteohub,2013-09-08 13:32:00,
2013-09-08 15:47:00,78.4,57.2,28.69,South,180,5.0,8.0,48,-99.99,,,-99.99,meteohub,2013-09-08 13:47:00,
2013-09-08 16:02:00,78.1,57.4,28.70,WNW,293,4.0,5.0,49,-99.99,,,-99.99,meteohub,2013-09-08 14:02:00,
2013-09-08 16:17:00,77.2,57.0,28.70,NNE,23,4.0,8.0,50,-99.99,,,-99.99,meteohub,2013-09-08 14:17:00,
2013-09-08 16:32:00,76.5,57.0,28.70,South,180,7.0,7.0,51,-99.99,,,-99.99,meteohub,2013-09-08 14:32:00,
2013-09-08 16:47:00,76.3,56.8,28.69,SSE,158,6.0,7.0,51,-99.99,,,-99.99,meteohub,2013-09-08 14:47:00,
2013-09-08 17:02:00,76.1,56.7,28.69,SW,225,3.0,7.0,51,-99.99,,,-99.99,meteohub,2013-09-08 15:02:00,
2013-09-08 17:17:00,76.5,57.0,28.69,WSW,248,3.0,5.0,51,-99.99,,,-99.99,meteohub,2013-09-08 15:17:00,
2013-09-08 17:32:00,76.3,57.4,28.67,WSW,248,2.0,4.0,52,-99.99,,,-99.99,meteohub,2013-09-08 15:32:00,
2013-09-08 17:47:00,75.9,57.0,28.67,NW,315,2.0,4.0,52,-99.99,,,-99.99,meteohub,2013-09-08 15:47:00,
2013-09-08 18:02:00,75.4,55.9,28.66,NNW,338,0.0,3.0,51,-99.99,,,-99.99,meteohub,2013-09-08 16:02:00,
2013-09-08 18:17:00,75.0,56.1,28.66,NNW,338,2.0,2.0,52,-99.99,,,-99.99,meteohub,2013-09-08 16:17:00,
2013-09-08 18:32:00,74.7,56.8,28.65,WSW,248,0.0,2.0,54,-99.99,,,-99.99,meteohub,2013-09-08 16:32:00,
2013-09-08 18:47:00,73.9,56.3,28.65,WSW,248,0.0,2.0,54,-99.99,,,-99.99,meteohub,2013-09-08 16:47:00,
2013-09-08 19:02:00,73.4,56.3,28.65,NW,315,2.0,2.0,55,-99.99,,,-99.99,meteohub,2013-09-08 17:02:00,
2013-09-08 19:17:00,73.0,56.5,28.65,NW,315,0.0,2.0,56,-99.99,,,-99.99,meteohub,2013-09-08 17:17:00,
2013-09-08 19:32:00,72.3,55.8,28.64,NW,315,4.0,6.0,56,-99.99,,,-99.99,meteohub,2013-09-08 17:32:00,
2013-09-08 19:47:00,71.6,55.0,28.64,West,270,0.0,4.0,56,-99.99,,,-99.99,meteohub,2013-09-08 17:47:00,
2013-09-08 20:02:00,71.2,55.2,28.63,West,270,1.0,2.0,57,-99.99,,,-99.99,meteohub,2013-09-08 18:02:00,
2013-09-08 20:17:00,70.9,54.9,28.63,NW,315,3.0,4.0,57,-99.99,,,-99.99,meteohub,2013-09-08 18:17:00,
2013-09-08 20:32:00,70.5,54.5,28.62,NW,315,3.0,5.0,57,-99.99,,,-99.99,meteohub,2013-09-08 18:32:00,
2013-09-08 20:47:00,70.0,54.0,28.62,NW,315,4.0,5.0,57,-99.99,,,-99.99,meteohub,2013-09-08 18:47:00,
2013-09-08 21:02:00,69.6,53.8,28.61,NNW,338,4.0,4.0,57,-99.99,,,-99.99,meteohub,2013-09-08 19:02:00,
2013-09-08 21:17:00,69.3,53.4,28.61,WNW,293,2.0,4.0,57,-99.99,,,-99.99,meteohub,2013-09-08 19:17:00,
2013-09-08 21:32:00,68.9,53.1,28.59,NNW,338,4.0,5.0,57,-99.99,,,-99.99,meteohub,2013-09-08 19:32:00,
2013-09-08 21:47:00,68.9,53.1,28.59,NW,315,3.0,5.0,57,-99.99,,,-99.99,meteohub,2013-09-08 19:47:00,
2013-09-08 22:02:00,68.7,53.4,28.58,NNW,338,1.0,3.0,58,-99.99,,,-99.99,meteohub,2013-09-08 20:02:00,
2013-09-08 22:17:00,68.5,53.2,28.58,NW,315,2.0,3.0,58,-99.99,,,-99.99,meteohub,2013-09-08 20:17:00,
2013-09-08 22:32:00,68.2,52.9,28.58,NW,315,3.0,4.0,58,-99.99,,,-99.99,meteohub,2013-09-08 20:32:00,
2013-09-08 22:47:00,68.0,52.7,28.57,West,270,2.0,5.0,58,-99.99,,,-99.99,meteohub,2013-09-08 20:47:00,
2013-09-08 23:02:00,68.0,52.7,28.56,NW,315,0.0,3.0,58,-99.99,,,-99.99,meteohub,2013-09-08 21:02:00,
2013-09-08 23:17:00,68.0,52.7,28.56,NW,315,0.0,0.0,58,-99.99,,,-99.99,meteohub,2013-09-08 21:17:00,
2013-09-08 23:32:00,67.3,52.0,28.55,South,180,0.0,4.0,58,-99.99,,,-99.99,meteohub,2013-09-08 21:32:00,
2013-09-08 23:47:00,67.3,52.0,28.56,SW,225,0.0,2.0,58,-99.99,,,-99.99,meteohub,2013-09-08 21:47:00,